| time (UTC) | temp F | wind direction | speed MPH | gust MPH | rain 1hr in | rain 24hr in | rain mn in | humidity % | barometer mb |
| 20260506080234 | 51 | 296 | 4.0 | 9.0 | 0.00 | 0.01 | 0.00 | 43 | 1023.2 |
| 20260506073212 | 52 | 240 | 2.0 | 8.0 | 0.00 | 0.01 | 0.00 | 40 | 1023.2 |
| 20260506072227 | 52 | 298 | 3.0 | 11.0 | 0.00 | 0.01 | 0.00 | 39 | 1023.1 |
| 20260506071140 | 53 | 280 | 6.0 | 11.0 | 0.00 | 0.01 | 0.00 | 38 | 1023.2 |
| 20260506070154 | 53 | 266 | 5.0 | 13.0 | 0.00 | 0.01 | 0.00 | 37 | 1023.3 |
| 20260506062151 | 54 | 276 | 4.0 | 16.0 | 0.00 | 0.01 | 0.00 | 35 | 1022.8 |
| 20260506061206 | 54 | 291 | 4.0 | 9.0 | 0.00 | 0.01 | 0.00 | 34 | 1022.9 |
| 20260506060222 | 55 | 355 | 3.0 | 9.0 | 0.00 | 0.01 | 0.00 | 33 | 1022.8 |
| 20260506051253 | 56 | 345 | 5.0 | 15.0 | 0.00 | 0.01 | 0.01 | 32 | 1022.5 |
| 20260506050247 | 56 | 237 | 4.0 | 14.0 | 0.00 | 0.01 | 0.01 | 32 | 1022.5 |
| 20260506044213 | 56 | 67 | 1.0 | 7.0 | 0.00 | 0.01 | 0.01 | 35 | 1022.4 |
| 20260506043228 | 56 | 2 | 3.0 | 14.0 | 0.00 | 0.01 | 0.01 | 34 | 1022.4 |
| 20260506042139 | 55 | 260 | 3.0 | 7.0 | 0.00 | 0.01 | 0.01 | 35 | 1022.3 |
| 20260506041156 | 55 | 289 | 2.0 | 7.0 | 0.00 | 0.01 | 0.01 | 40 | 1022.0 |
| 20260506040210 | 55 | 1 | 2.0 | 6.0 | 0.00 | 0.01 | 0.01 | 40 | 1022.2 |
| 20260506035246 | 56 | 277 | 2.0 | 10.0 | 0.00 | 0.01 | 0.01 | 41 | 1021.9 |
| 20260506034240 | 56 | 253 | 3.0 | 8.0 | 0.00 | 0.01 | 0.01 | 41 | 1022.1 |
| 20260506033150 | 56 | 45 | 1.0 | 6.0 | 0.00 | 0.01 | 0.01 | 42 | 1021.9 |
| 20260506032205 | 56 | 349 | 1.0 | 5.0 | 0.00 | 0.01 | 0.01 | 43 | 1021.7 |
| 20260506031222 | 55 | 326 | 2.0 | 5.0 | 0.00 | 0.01 | 0.01 | 43 | 1021.7 |
| 20260506030236 | 56 | 317 | 4.0 | 10.0 | 0.00 | 0.01 | 0.01 | 42 | 1021.6 |
| 20260506025147 | 56 | 105 | 0.0 | 7.0 | 0.00 | 0.01 | 0.01 | 42 | 1021.6 |
| 20260506024204 | 56 | 326 | 4.0 | 9.0 | 0.00 | 0.01 | 0.01 | 42 | 1021.5 |
| 20260506023218 | 56 | 352 | 2.0 | 6.0 | 0.00 | 0.01 | 0.01 | 42 | 1021.4 |
| 20260506022255 | 56 | 313 | 3.0 | 11.0 | 0.00 | 0.01 | 0.01 | 43 | 1021.4 |
| 20260506021206 | 55 | 6 | 1.0 | 5.0 | 0.00 | 0.01 | 0.01 | 43 | 1021.3 |
| 20260506020201 | 56 | 331 | 2.0 | 10.0 | 0.00 | 0.01 | 0.01 | 42 | 1021.3 |
| 20260506015215 | 57 | 301 | 3.0 | 7.0 | 0.00 | 0.01 | 0.01 | 42 | 1021.1 |
| 20260506014230 | 57 | 346 | 2.0 | 6.0 | 0.00 | 0.01 | 0.01 | 42 | 1021.0 |
| 20260506013245 | 57 | 301 | 5.0 | 11.0 | 0.00 | 0.01 | 0.01 | 41 | 1021.0 |
| 20260506012157 | 57 | 310 | 3.0 | 5.0 | 0.00 | 0.01 | 0.01 | 41 | 1021.0 |
| 20260506011212 | 58 | 250 | 4.0 | 11.0 | 0.00 | 0.01 | 0.01 | 41 | 1021.1 |
| 20260506010228 | 58 | 307 | 6.0 | 15.0 | 0.00 | 0.01 | 0.01 | 39 | 1021.0 |
| 20260506005243 | 58 | 256 | 6.0 | 18.0 | 0.00 | 0.01 | 0.01 | 38 | 1021.1 |
| 20260506004155 | 58 | 218 | 4.0 | 15.0 | 0.00 | 0.01 | 0.01 | 39 | 1020.9 |
| 20260506003210 | 58 | 293 | 2.0 | 7.0 | 0.00 | 0.01 | 0.01 | 38 | 1020.7 |
| 20260506002245 | 58 | 8 | 7.0 | 13.0 | 0.00 | 0.01 | 0.01 | 40 | 1020.9 |
| 20260506001241 | 58 | 190 | 5.0 | 17.0 | 0.00 | 0.01 | 0.01 | 44 | 1020.8 |
| 20260506000152 | 58 | 318 | 4.0 | 9.0 | 0.00 | 0.01 | 0.01 | 44 | 1020.8 |
| 20260505235228 | 58 | 183 | 8.0 | 24.0 | 0.00 | 0.01 | 0.01 | 44 | 1020.9 |
| 20260505234223 | 57 | 235 | 5.0 | 15.0 | 0.00 | 0.01 | 0.01 | 47 | 1021.0 |
| 20260505233258 | 57 | 248 | 5.0 | 16.0 | 0.00 | 0.01 | 0.01 | 47 | 1020.9 |
| 20260505232252 | 58 | 213 | 4.0 | 11.0 | 0.00 | 0.01 | 0.01 | 46 | 1020.9 |
| 20260505231203 | 57 | 219 | 5.0 | 11.0 | 0.00 | 0.01 | 0.01 | 47 | 1021.0 |
| 20260505230218 | 58 | 250 | 5.0 | 10.0 | 0.00 | 0.01 | 0.01 | 47 | 1021.0 |
| 20260505225233 | 57 | 188 | 4.0 | 11.0 | 0.00 | 0.01 | 0.01 | 48 | 1021.3 |
| 20260505224248 | 57 | 226 | 5.0 | 14.0 | 0.00 | 0.01 | 0.01 | 48 | 1021.3 |
| 20260505223200 | 57 | 87 | 5.0 | 13.0 | 0.00 | 0.01 | 0.01 | 50 | 1021.4 |
| 20260505222235 | 57 | 281 | 7.0 | 16.0 | 0.00 | 0.01 | 0.01 | 50 | 1021.5 |
| 20260505221230 | 56 | 303 | 5.0 | 13.0 | 0.00 | 0.01 | 0.01 | 50 | 1021.6 |
| 20260505220246 | 57 | 297 | 5.0 | 16.0 | 0.00 | 0.01 | 0.01 | 50 | 1021.7 |
| 20260505215157 | 56 | 190 | 4.0 | 9.0 | 0.00 | 0.01 | 0.01 | 51 | 1021.9 |
| 20260505214212 | 55 | 260 | 4.0 | 10.0 | 0.00 | 0.01 | 0.01 | 52 | 1022.2 |
| 20260505213228 | 55 | 295 | 3.0 | 9.0 | 0.00 | 0.01 | 0.01 | 54 | 1022.0 |
| 20260505212243 | 54 | 153 | 2.0 | 7.0 | 0.00 | 0.01 | 0.01 | 56 | 1022.5 |
| 20260505211319 | 55 | 175 | 4.0 | 10.0 | 0.00 | 0.01 | 0.01 | 56 | 1022.5 |
| 20260505210209 | 55 | 113 | 2.0 | 17.0 | 0.00 | 0.01 | 0.01 | 57 | 1022.8 |
| 20260505205245 | 54 | 267 | 2.0 | 9.0 | 0.00 | 0.01 | 0.01 | 58 | 1023.0 |
| 20260505204239 | 54 | 255 | 5.0 | 10.0 | 0.01 | 0.01 | 0.01 | 59 | 1023.2 |
| 20260505203254 | 53 | 202 | 3.0 | 8.0 | 0.01 | 0.01 | 0.01 | 61 | 1023.4 |
| 20260505202206 | 53 | 193 | 2.0 | 9.0 | 0.01 | 0.01 | 0.01 | 61 | 1023.6 |
| 20260505201221 | 53 | 254 | 4.0 | 8.0 | 0.01 | 0.01 | 0.01 | 61 | 1023.4 |
| 20260505200236 | 52 | 285 | 8.0 | 15.0 | 0.01 | 0.01 | 0.01 | 62 | 1023.2 |
| 20260505195252 | 52 | 301 | 6.0 | 14.0 | 0.01 | 0.01 | 0.01 | 62 | 1023.2 |
| 20260505194203 | 52 | 175 | 7.0 | 14.0 | 0.00 | 0.00 | 0.00 | 62 | 1023.2 |
| 20260505193219 | 52 | 165 | 3.0 | 10.0 | 0.00 | 0.00 | 0.00 | 62 | 1023.4 |
| 20260505192234 | 52 | 330 | 3.0 | 10.0 | 0.00 | 0.00 | 0.00 | 62 | 1023.2 |
| 20260505191145 | 52 | 154 | 3.0 | 10.0 | 0.00 | 0.00 | 0.00 | 60 | 1022.9 |
| 20260505190201 | 52 | 155 | 4.0 | 14.0 | 0.00 | 0.00 | 0.00 | 60 | 1022.8 |
| 20260505185112 | 53 | 264 | 5.0 | 11.0 | 0.00 | 0.00 | 0.00 | 56 | 1023.3 |
| 20260505184127 | 54 | 237 | 5.0 | 14.0 | 0.00 | 0.00 | 0.00 | 48 | 1023.2 |
| 20260505183143 | 54 | 318 | 5.0 | 15.0 | 0.00 | 0.00 | 0.00 | 46 | 1022.9 |
| 20260505182157 | 54 | 31 | 1.0 | 5.0 | 0.00 | 0.00 | 0.00 | 46 | 1022.8 |
| 20260505181109 | 54 | 245 | 3.0 | 11.0 | 0.00 | 0.00 | 0.00 | 46 | 1023.2 |
| 20260505180124 | 54 | 333 | 3.0 | 13.0 | 0.00 | 0.00 | 0.00 | 46 | 1023.2 |
| 20260505175140 | 55 | 319 | 4.0 | 13.0 | 0.00 | 0.00 | 0.00 | 46 | 1023.3 |
| 20260505174156 | 56 | 230 | 3.0 | 8.0 | 0.00 | 0.00 | 0.00 | 45 | 1023.3 |
| 20260505173106 | 56 | 286 | 5.0 | 15.0 | 0.00 | 0.00 | 0.00 | 44 | 1023.2 |
| 20260505172122 | 57 | 20 | 3.0 | 10.0 | 0.00 | 0.00 | 0.00 | 44 | 1023.2 |
| 20260505171137 | 58 | 272 | 5.0 | 16.0 | 0.00 | 0.00 | 0.00 | 43 | 1023.0 |
| 20260505170153 | 57 | 308 | 6.0 | 14.0 | 0.00 | 0.00 | 0.00 | 43 | 1023.0 |
| 20260505165208 | 55 | 297 | 5.0 | 16.0 | 0.00 | 0.00 | 0.00 | 44 | 1022.9 |
| 20260505164120 | 55 | 230 | 4.0 | 7.0 | 0.00 | 0.00 | 0.00 | 43 | 1022.9 |
| 20260505163134 | 55 | 359 | 5.0 | 11.0 | 0.00 | 0.00 | 0.00 | 43 | 1022.8 |
| 20260505162150 | 54 | 288 | 6.0 | 11.0 | 0.00 | 0.00 | 0.00 | 43 | 1023.0 |
| 20260505161208 | 55 | 261 | 4.0 | 9.0 | 0.00 | 0.00 | 0.00 | 40 | 1023.3 |
| 20260505160116 | 55 | 308 | 4.0 | 9.0 | 0.00 | 0.00 | 0.00 | 38 | 1022.9 |
| 20260505153202 | 54 | 239 | 3.0 | 9.0 | 0.00 | 0.00 | 0.00 | 41 | 1022.9 |
| 20260505152112 | 54 | 122 | 2.0 | 7.0 | 0.00 | 0.00 | 0.00 | 42 | 1022.9 |
| 20260505151127 | 54 | 186 | 3.0 | 7.0 | 0.00 | 0.00 | 0.00 | 42 | 1022.9 |
| 20260505150142 | 54 | 243 | 2.0 | 8.0 | 0.00 | 0.00 | 0.00 | 44 | 1023.0 |
| 20260505140210 | 54 | 213 | 4.0 | 11.0 | 0.00 | 0.00 | 0.00 | 45 | 1023.5 |
| 20260505130132 | 55 | 348 | 2.0 | 11.0 | 0.00 | 0.00 | 0.00 | 43 | 1022.8 |
| 20260505124202 | 55 | 271 | 3.0 | 9.0 | 0.00 | 0.00 | 0.00 | 41 | 1022.8 |
| 20260505123218 | 54 | 322 | 3.0 | 8.0 | 0.00 | 0.00 | 0.00 | 41 | 1022.8 |
| 20260505122149 | 54 | 343 | 3.0 | 7.0 | 0.00 | 0.00 | 0.00 | 41 | 1022.5 |
| 20260505121145 | 54 | 297 | 3.0 | 7.0 | 0.00 | 0.00 | 0.00 | 41 | 1022.5 |
| 20260505120159 | 54 | 331 | 3.0 | 8.0 | 0.00 | 0.00 | 0.00 | 40 | 1022.4 |
| 20260505115214 | 55 | 272 | 3.0 | 6.0 | 0.00 | 0.00 | 0.00 | 39 | 1022.6 |
| 20260505114145 | 55 | 326 | 3.0 | 10.0 | 0.00 | 0.00 | 0.00 | 39 | 1022.3 |
| 20260505113200 | 55 | 290 | 3.0 | 7.0 | 0.00 | 0.00 | 0.00 | 39 | 1022.7 |
| 20260505112154 | 55 | 331 | 3.0 | 8.0 | 0.00 | 0.00 | 0.00 | 39 | 1022.6 |
| 20260505111229 | 55 | 241 | 4.0 | 13.0 | 0.00 | 0.00 | 0.00 | 39 | 1022.9 |
| 20260505110225 | 55 | 285 | 2.0 | 6.0 | 0.00 | 0.00 | 0.00 | 40 | 1022.6 |
| 20260505101129 | 55 | 111 | 0.0 | 1.0 | 0.00 | 0.00 | 0.00 | 41 | 1022.4 |
| 20260505100144 | 56 | 144 | 0.0 | 1.0 | 0.00 | 0.00 | 0.00 | 40 | 1022.5 |
| 20260505095159 | 56 | 156 | 1.0 | 3.0 | 0.00 | 0.00 | 0.00 | 38 | 1022.6 |
| 20260505094205 | 57 | 60 | 1.0 | 2.0 | 0.00 | 0.00 | 0.00 | 38 | 1023.0 |
| 20260505093220 | 57 | 158 | 1.0 | 3.0 | 0.00 | 0.00 | 0.00 | 37 | 1022.9 |
| 20260505092130 | 55 | 209 | 2.0 | 8.0 | 0.00 | 0.00 | 0.00 | 38 | 1023.1 |
| 20260505091142 | 54 | 92 | 1.0 | 3.0 | 0.00 | 0.00 | 0.00 | 41 | 1022.9 |
| 20260505090158 | 53 | 130 | 1.0 | 3.0 | 0.00 | 0.00 | 0.00 | 44 | 1023.0 |
| 20260505085233 | 53 | 150 | 0.0 | 3.0 | 0.00 | 0.00 | 0.00 | 45 | 1023.0 |
| 20260505084227 | 53 | 0.0 | 1.0 | 0.00 | 0.00 | 0.00 | 46 | 1023.3 | |
| 20260505083159 | 54 | 135 | 1.0 | 3.0 | 0.00 | 0.00 | 0.00 | 42 | 1023.3 |
| 20260505082152 | 56 | 136 | 0.0 | 1.0 | 0.00 | 0.00 | 0.00 | 39 | 1023.4 |
| 20260505081206 | 57 | 233 | 2.0 | 5.0 | 0.00 | 0.00 | 0.00 | 37 | 1023.4 |